User: anonymous   Login
Location: Alberta Star Party
(51.6612°N, 112.9089°W)
Time: 18:32:05
(UTC-06:00)
Language:

AO-Echo - Orbit

View from above orbital plane
View from above orbital plane
View from above satellite
View from above satellite

Ground track
Ground track

The orbit data is extracted from the following two-line orbital elements,

1 28375U 04025K   17205.35258185 +.00000003 +00000-0 +14000-4 0  9990
2 28375 098.3588 138.0413 0082697 170.5647 189.7119 14.41845539687179
Epoch (UTC): 24 July 2017 08:27:43
Eccentricity: 0.0082697
inclination: 98.3588°
perigee height: 693 km
apogee height: 811 km
right ascension of ascending node: 138.0413°
argument of perigee: 170.5647°
revolutions per day: 14.41845539
mean anomaly at epoch: 189.7119°
orbit number at epoch: 68717

The dashed part of the orbit path shows where the satellite is in the earth's shadow,  

DLR